McGregor, MN

5:05 AM CDT on July 28, 2017 (GMT -0500)
McGregor

Weather History for KHZX - October, 2012

Change the Weather History Date:

Monday, October 1, 2012

  Actual Average (KAIT) Record (KAIT)
Temperature  
Mean Temperature 52 °F -  
Max Temperature 68 °F 64 °F 83 °F (1963)
Min Temperature 37 °F 40 °F 24 °F (2003)
Degree Days  
Heating Degree Days 12    
Growing Degree Days 2 (Base 50)    
Moisture  
Dew Point 40 °F    
Average Humidity 61    
Maximum Humidity 100    
Minimum Humidity 34    
Precipitation  
Precipitation 0.00 in - - ()
Sea Level Pressure  
Sea Level Pressure 29.92 in    
Wind  
Wind Speed 6 mph (NW)    
Max Wind Speed 18 mph    
Max Gust Speed 25 mph    
Visibility 10 miles    
Events      
Averages and records for this station are not official NWS values.
T = Trace of Precipitation, MM = Missing Value Source: NWS Daily Summary

Daily Weather History Graph

Daily Weather History Graph

Search for Another Location

Airport or City:

Trip Planner

Search our weather history database for the weather conditions in past years. The results will help you decide how hot, cold, wet, or windy it might be!

Date:

Astronomy

Oct. 01, 2012 Rise Set
Actual Time 7:12 AM CDT 6:52 PM CDT
Civil Twilight 6:42 AM CDT 7:22 PM CDT
Nautical Twilight 6:07 AM CDT 7:57 PM CDT
Astronomical Twilight 5:31 AM CDT 8:32 PM CDT
Moon 7:19 PM CDT (10/1) 8:51 AM CDT (10/1)
Length of Visible Light 12h 39m
Length of Day
11h 39m
Full, 98% of the Moon is Illuminated
Oct 1
Full
Oct 8
Last Quarter
Oct 15
New
Oct 21
First Quarter
Oct 29
Full

Hourly Weather History & Observations

Time (CDT) Temp. Windchill Dew Point Humidity Pressure Visibility Wind Dir Wind Speed Gust Speed Precip Events Conditions
12:12 AM 46.4 °F - 42.8 °F 87% 29.85 in 10.0 mi Calm Calm - N/A   Clear
12:30 AM 44.6 °F - 44.6 °F 100% 29.86 in 10.0 mi Calm Calm - N/A   Clear
12:51 AM 46.4 °F - 42.8 °F 87% 29.87 in 10.0 mi Calm Calm - N/A   Mostly Cloudy
1:11 AM 46.4 °F - 42.8 °F 87% 29.87 in 10.0 mi Calm Calm - N/A   Scattered Clouds
1:31 AM 44.6 °F - 42.8 °F 93% 29.87 in 10.0 mi Calm Calm - N/A   Scattered Clouds
1:51 AM 44.6 °F - 42.8 °F 93% 29.86 in 10.0 mi Calm Calm - N/A   Clear
2:11 AM 46.4 °F - 44.6 °F 93% 29.86 in 10.0 mi Calm Calm - N/A   Scattered Clouds
2:31 AM 44.6 °F - 42.8 °F 93% 29.86 in 10.0 mi Calm Calm - N/A   Mostly Cloudy
2:49 AM 44.6 °F - 42.8 °F 93% 29.86 in 10.0 mi Calm Calm - N/A   Mostly Cloudy
3:11 AM 44.6 °F - 42.8 °F 93% 29.85 in 10.0 mi Calm Calm - N/A   Scattered Clouds
3:31 AM 46.4 °F 42.9 °F 44.6 °F 93% 29.86 in 10.0 mi NW 6.9 mph - N/A   Scattered Clouds
4:12 AM 55.4 °F - 46.4 °F 72% 29.86 in 10.0 mi NW 8.1 mph - N/A   Clear
4:51 AM 55.4 °F - 44.6 °F 67% 29.87 in 10.0 mi NW 11.5 mph 17.3 mph N/A   Clear
5:11 AM 53.6 °F - 44.6 °F 72% 29.87 in 10.0 mi NW 8.1 mph 16.1 mph N/A   Clear
5:31 AM 53.6 °F - 44.6 °F 72% 29.87 in 10.0 mi NW 6.9 mph - N/A   Clear
5:49 AM 53.6 °F - 42.8 °F 67% 29.88 in 10.0 mi NW 8.1 mph - N/A   Clear
6:11 AM 53.6 °F - 42.8 °F 67% 29.89 in 10.0 mi WNW 8.1 mph - N/A   Clear
6:30 AM 53.6 °F - 44.6 °F 72% 29.89 in 10.0 mi NW 8.1 mph - N/A   Scattered Clouds
6:51 AM 53.6 °F - 44.6 °F 72% 29.89 in 10.0 mi NW 8.1 mph - N/A   Scattered Clouds
7:11 AM 53.6 °F - 44.6 °F 72% 29.90 in 10.0 mi WNW 5.8 mph - N/A   Clear
7:31 AM 53.6 °F - 44.6 °F 72% 29.90 in 10.0 mi NW 11.5 mph - N/A   Mostly Cloudy
8:11 AM 53.6 °F - 44.6 °F 72% 29.91 in 10.0 mi WNW 8.1 mph - N/A   Mostly Cloudy
8:31 AM 53.6 °F - 44.6 °F 72% 29.92 in 10.0 mi NW 10.4 mph - N/A   Mostly Cloudy
8:51 AM 53.6 °F - 44.6 °F 72% 29.91 in 10.0 mi NNW 12.7 mph 17.3 mph N/A   Overcast
9:11 AM 55.4 °F - 44.6 °F 67% 29.92 in 10.0 mi NW 9.2 mph 16.1 mph N/A   Mostly Cloudy
9:31 AM 55.4 °F - 44.6 °F 67% 29.92 in 10.0 mi NW 12.7 mph - N/A   Scattered Clouds
10:11 AM 57.2 °F - 46.4 °F 67% 29.93 in 10.0 mi NW 10.4 mph - N/A   Scattered Clouds
10:32 AM 57.2 °F - 46.4 °F 67% 29.94 in 10.0 mi NNW 12.7 mph 18.4 mph N/A   Clear
10:51 AM 59.0 °F - 46.4 °F 63% 29.94 in 10.0 mi NW 10.4 mph 21.9 mph N/A   Clear
11:11 AM 59.0 °F - 46.4 °F 63% 29.94 in 10.0 mi NNW 8.1 mph - N/A   Clear
11:29 AM 62.6 °F - 48.2 °F 59% 29.93 in 10.0 mi NNW 13.8 mph 21.9 mph N/A   Clear
12:10 PM 62.6 °F - 46.4 °F 55% 29.93 in 10.0 mi North 16.1 mph 23.0 mph N/A   Clear
12:31 PM 64.4 °F - 46.4 °F 52% 29.93 in 10.0 mi NNW 18.4 mph - N/A   Clear
1:11 PM 66.2 °F - 41.0 °F 40% 29.93 in 10.0 mi NNW 16.1 mph 24.2 mph N/A   Clear
1:31 PM 68.0 °F - 41.0 °F 37% 29.92 in 10.0 mi North 18.4 mph 24.2 mph N/A   Scattered Clouds
1:51 PM 68.0 °F - 41.0 °F 37% 29.92 in 10.0 mi North 13.8 mph 23.0 mph N/A   Mostly Cloudy
2:07 PM 66.2 °F - 41.0 °F 40% 29.92 in 10.0 mi NNW 16.1 mph 21.9 mph N/A   Overcast
2:31 PM 68.0 °F - 41.0 °F 37% 29.92 in 10.0 mi NNW 18.4 mph 25.3 mph N/A   Mostly Cloudy
2:51 PM 68.0 °F - 41.0 °F 37% 29.92 in 10.0 mi NNW 12.7 mph 23.0 mph N/A   Scattered Clouds
3:11 PM 68.0 °F - 41.0 °F 37% 29.92 in 10.0 mi North 16.1 mph 25.3 mph N/A   Clear
3:30 PM 68.0 °F - 39.2 °F 35% 29.92 in 10.0 mi NNW 17.3 mph 21.9 mph N/A   Clear
3:50 PM 68.0 °F - 41.0 °F 37% 29.92 in 10.0 mi North 15.0 mph - N/A   Clear
4:12 PM 68.0 °F - 39.2 °F 35% 29.92 in 10.0 mi NNW 11.5 mph - N/A   Clear
4:31 PM 66.2 °F - 39.2 °F 37% 29.93 in 10.0 mi NW 13.8 mph 19.6 mph N/A   Clear
4:51 PM 66.2 °F - 37.4 °F 35% 29.93 in 10.0 mi NNW 12.7 mph 19.6 mph N/A   Clear
5:11 PM 66.2 °F - 37.4 °F 35% 29.93 in 10.0 mi NNW 15.0 mph - N/A   Clear
5:31 PM 64.4 °F - 37.4 °F 37% 29.93 in 10.0 mi NNW 8.1 mph - N/A   Clear
5:50 PM 64.4 °F - 37.4 °F 37% 29.94 in 10.0 mi NNW 15.0 mph - N/A   Clear
6:11 PM 62.6 °F - 35.6 °F 37% 29.95 in 10.0 mi NW 11.5 mph 19.6 mph N/A   Clear
6:31 PM 62.6 °F - 35.6 °F 37% 29.95 in 10.0 mi NW 10.4 mph 17.3 mph N/A   Clear
6:51 PM 60.8 °F - 32.0 °F 34% 29.96 in 10.0 mi NW 10.4 mph - N/A   Clear
7:10 PM 59.0 °F - 32.0 °F 36% 29.96 in 10.0 mi NW 6.9 mph - N/A   Clear
7:29 PM 55.4 °F - 32.0 °F 41% 29.96 in 10.0 mi NNW 6.9 mph - N/A   Clear
7:51 PM 53.6 °F - 32.0 °F 44% 29.97 in 10.0 mi NNW 5.8 mph - N/A   Clear
8:11 PM 53.6 °F - 32.0 °F 44% 29.97 in 10.0 mi NNW 4.6 mph - N/A   Clear
8:31 PM 51.8 °F - 32.0 °F 47% 29.97 in 10.0 mi NW 4.6 mph - N/A   Clear
8:51 PM 50.0 °F - 32.0 °F 50% 29.98 in 10.0 mi NW 4.6 mph - N/A   Clear
9:11 PM 50.0 °F - 32.0 °F 50% 29.98 in 10.0 mi Calm Calm - N/A   Clear
9:31 PM 48.2 °F - 32.0 °F 54% 29.98 in 10.0 mi Calm Calm - N/A   Clear
9:51 PM 46.4 °F - 32.0 °F 57% 29.98 in 10.0 mi Calm Calm - N/A   Clear
10:11 PM 46.4 °F 45.2 °F 32.0 °F 57% 29.98 in 10.0 mi NW 3.5 mph - N/A   Clear
10:31 PM 41.0 °F 38.0 °F 32.0 °F 70% 29.98 in 10.0 mi NW 4.6 mph - N/A   Clear
11:11 PM 39.2 °F - 32.0 °F 75% 29.99 in 10.0 mi Calm Calm - N/A   Clear
11:29 PM 37.4 °F - 32.0 °F 81% 29.99 in 10.0 mi Calm Calm - N/A   Clear
11:51 PM 37.4 °F - 32.0 °F 81% 29.98 in 10.0 mi Calm Calm - N/A   Clear